Yoho Park, British Columbia

8:57 PM MST on February 11, 2016 (GMT -0700)
Yoho Park

Weather History for 71786 - December, 2013

Change the Weather History Date:

Thursday, December 26, 2013

  Actual Average Record
Temperature  
Mean Temperature 20 °F -  
Max Temperature 25 °F - - ()
Min Temperature 17 °F - - ()
Degree Days  
Heating Degree Days 44    
Moisture  
Dew Point 21 °F    
Average Humidity 96    
Maximum Humidity 99    
Minimum Humidity 91    
Precipitation  
Precipitation 0.04 in - - ()
Sea Level Pressure  
Sea Level Pressure 30.22 in    
Wind  
Wind Speed 20 mph ()    
Max Wind Speed 28 mph    
Max Gust Speed 33 mph    
T = Trace of Precipitation, MM = Missing Value Source: Averaged Metar Reports

Daily Weather History Graph

Daily Weather History Graph

Search for Another Location

Airport or City:

Trip Planner

Search our weather history database for the weather conditions in past years. The results will help you decide how hot, cold, wet, or windy it might be!

Date:

Astronomy

Dec. 26, 2013 Rise Set
Actual Time 8:50 AM MST 4:42 PM MST
Civil Twilight 8:10 AM MST 5:22 PM MST
Nautical Twilight 7:27 AM MST 6:05 PM MST
Astronomical Twilight 6:46 AM MST 6:46 PM MST
Moon 1:52 AM MST (12/26) 12:48 PM MST (12/26)
Length of Visible Light 9h 12m
Length of Day
7h 51m
Last Quarter, 38% of the Moon is Illuminated
Dec 26
Last Quarter
Jan 1
New
Jan 7
First Quarter
Jan 15
Full
Jan 23
Last Quarter

Hourly Weather History & Observations

Time (MST) Temp. Windchill Dew Point Humidity Pressure Visibility Wind Dir Wind Speed Gust Speed Precip Events Conditions
12:00 AM 18.9 °F 1.4 °F 18.0 °F 96% 30.32 in - West 24.2 mph 29.9 mph N/A   Unknown
1:00 AM 18.9 °F 1.7 °F 18.1 °F 97% 30.31 in - West 23.0 mph - N/A   Unknown
2:00 AM 19.2 °F 3.0 °F 18.3 °F 96% 30.30 in - West 20.7 mph - N/A   Unknown
3:00 AM 19.4 °F 2.5 °F 18.5 °F 96% 30.30 in - West 23.0 mph 28.8 mph N/A   Unknown
4:00 AM 19.0 °F 2.7 °F 18.1 °F 96% 30.30 in - West 20.7 mph 26.5 mph N/A   Unknown
5:00 AM 19 °F - 18 °F 96% 30.29 in - West 21.9 mph - -  
5:00 AM 19.0 °F 2.4 °F 18.3 °F 97% 30.29 in - West 21.9 mph 28.8 mph N/A   Unknown
6:00 AM 19.2 °F 2.2 °F 18.5 °F 97% 30.28 in - West 23.0 mph - N/A   Unknown
7:00 AM 19.6 °F 4.7 °F 18.9 °F 97% 30.26 in - West 17.3 mph 25.3 mph 0.01 in   Unknown
8:00 AM 19.8 °F 5.9 °F 18.9 °F 96% 30.23 in - West 15.0 mph 20.7 mph N/A   Unknown
9:00 AM 19.6 °F 2.0 °F 18.9 °F 97% 30.21 in - West 25.3 mph 32.2 mph 0.01 in   Unknown
10:00 AM 20.3 °F 3.0 °F 19.2 °F 96% 30.20 in - West 25.3 mph 31.1 mph N/A   Unknown
11:00 AM 21 °F - 20 °F 94% 30.19 in - West 27.6 mph - -  
11:00 AM 21.0 °F 3.3 °F 19.9 °F 96% 30.19 in - West 27.6 mph - N/A   Unknown
12:00 PM 22.6 °F 5.8 °F 20.8 °F 93% 30.17 in - West 26.5 mph 32.2 mph 0.01 in   Unknown
1:00 PM 23.5 °F 6.7 °F 21.4 °F 91% 30.16 in - West 27.6 mph 33.4 mph 0.01 in   Unknown
2:00 PM 22.5 °F 5.9 °F 21.4 °F 96% 30.15 in - West 25.3 mph 31.1 mph 0.01 in   Unknown
3:00 PM 22.8 °F 7.0 °F 21.7 °F 96% 30.15 in - West 23.0 mph - 0.01 in   Unknown
4:00 PM 23.0 °F 7.2 °F 22.3 °F 97% 30.17 in - West 23.0 mph 29.9 mph 0.01 in   Unknown
5:00 PM 23 °F - 22 °F 97% 30.19 in - West 21.9 mph - -  
5:00 PM 23.0 °F 7.6 °F 22.5 °F 98% 30.19 in - West 21.9 mph - N/A   Unknown
6:00 PM 23.2 °F 7.8 °F 22.8 °F 99% 30.19 in - West 21.9 mph 27.6 mph N/A   Unknown
7:00 PM 23.2 °F 8.2 °F 22.8 °F 99% 30.18 in - West 20.7 mph 26.5 mph N/A   Unknown
8:00 PM 23.2 °F 8.6 °F 22.6 °F 98% 30.17 in - West 19.6 mph 25.3 mph N/A   Unknown
9:00 PM 23.2 °F 7.5 °F 22.8 °F 99% 30.17 in - West 23.0 mph - N/A   Unknown
10:00 PM 23.5 °F 8.7 °F 23.2 °F 99% 30.17 in - West 20.7 mph 27.6 mph N/A   Unknown
11:00 PM 24 °F - 24 °F 97% 30.17 in - West 18.4 mph - -  
11:00 PM 25.7 °F 12.3 °F 23.5 °F 92% 30.17 in - West 18.4 mph 24.2 mph N/A   Unknown